Regional Weather Roundup
Issued by NWS

Home | Current Version | Previous Version | Graphics & Text | Print | Product List | Glossary On
Versions: 1 2 3 4 5 6 7 8 9 10 11 12 13 14 15 16 17 18 19 20 21 22 23 24 25 26 27 28 29 30 31 32 33 34 35 36 37 38 39 40 41 42 43 44 45 46 47 48 49 50
000
ASUS43 KOAX 070202
RWRNE

WEATHER ROUNDUP FOR NEBRASKA
NATIONAL WEATHER SERVICE OMAHA NE
900 PM CDT WED MAY 06 2015

NOTES: SATELLITE DATA IS BEING USED TO AUGMENT CLOUD COVER ABOVE
       12000 FEET.
       "FAIR" INDICATES FEW OR NO CLOUDS BELOW 12,000 FEET WITH NO
       SIGNIFICANT WEATHER AND/OR OBSTRUCTIONS TO VISIBILITY.

  * THESE STATIONS DO NOT REPORT WEATHER SUCH AS RAIN...SNOW OR FOG.

NEZ001>004-019>022-054>056-070300-
NEBRASKA PANHANDLE

CITY           SKY/WX    TMP DP  RH WIND       PRES   REMARKS
SCOTTSBLUFF    CLOUDY    53  48  83 NW22G29   29.70R
ALLIANCE       RAIN      56  54  93 NW9       29.64R FOG
CHADRON        CLOUDY    55  50  83 NW15G22   29.66R
KIMBALL        CLOUDY    54  49  83 NW18G28   29.70R
SIDNEY         MOCLDY    54  51  90 NW9       29.67R
$$

NEZ057>060-069>072-079>082-070300-
SOUTHWEST NEBRASKA

CITY           SKY/WX    TMP DP  RH WIND       PRES   REMARKS
NORTH PLATTE   CLOUDY    62  54  74 S3        29.59R
IMPERIAL       PTCLDY    60  55  83 NW7       29.61R
MCCOOK         CLOUDY    66  55  67 SW7       29.59R
$$

NEZ005>010-023>029-035>040-094-070300-
NORTH CENTRAL NEBRASKA

CITY           SKY/WX    TMP DP  RH WIND       PRES   REMARKS
VALENTINE      CLOUDY    60  58  92 NE3       29.60S
AINSWORTH      MOCLDY    58  56  93 S6        29.61S
BROKEN BOW     CLOUDY    61  59  93 SE7       29.60S
ORD            CLOUDY    61  58  90 S13       29.59S
$$

NEZ041-046>049-061>064-073>077-083>087-070300-
SOUTH CENTRAL NEBRASKA

CITY           SKY/WX    TMP DP  RH WIND       PRES   REMARKS
GRAND ISLAND   CLOUDY    59  56  89 SE13      29.63R
AURORA         CLOUDY    60  59  97 SE17G23   29.63S
HASTINGS       CLOUDY    59  57  93 SE14      29.61S
KEARNEY *      CLOUDY    61  55  82 SE10      29.61S
YORK           LGT RAIN  61  57  88 SE16      29.66R
$$

NEZ011>018-030>034-042>045-070300-
NORTHEAST NEBRASKA

CITY           SKY/WX    TMP DP  RH WIND       PRES   REMARKS
NORFOLK        LGT RAIN  64  61  90 SE20G35   29.64R
BLAIR          RAIN      66  59  77 SE18G25   29.74S
COLUMBUS *     CLOUDY    61  54  77 SE13      29.68R
TEKAMAH        LGT RAIN  68  61  78 SE21G29   29.72F
WAYNE          LGT RAIN  64  62  91 SE29G37   29.67F
$$

NEZ050>053-065>068-078-088>093-070300-
SOUTHEAST NEBRASKA

CITY           SKY/WX    TMP DP  RH WIND       PRES   REMARKS
LINCOLN        TSTM      61  59  93 SW20G33   29.71S FOG
OMAHA EPPLEY   CLOUDY    69  59  70 SE21      29.76S THUNDER
FALLS CITY     CLOUDY    68  61  78 SE12G28   29.76S
NEBRASKA CITY  CLOUDY    67  58  72 SE16G23   29.75S
PLATTSMOUTH    CLOUDY    67  58  72 SE14G23   29.76R
$$

NEZ044-045-051>053-067-070300-
OMAHA AREA

CITY           SKY/WX    TMP DP  RH WIND       PRES   REMARKS
OMAHA EPPLEY   CLOUDY    69  59  70 SE21      29.76S THUNDER
BLAIR          RAIN      66  59  77 SE18G25   29.74S
MILLARD        CLOUDY    69  60  75 SE17G28   29.74R
OFFUTT AFB     CLOUDY    68  59  73 SE18G25   29.75S
PLATTSMOUTH    CLOUDY    67  58  72 SE14G23   29.76R
WAHOO          LGT RAIN  61  56  84 CALM      29.72S
$$



USA.gov is the U.S. government's official web portal to all federal, state and local government web resources and services.